This demonstration page uses our WeatherBlox Daily Observations layout. Learn more.

Left ArrowRight Arrow

39.01783, -85.05884

Hourly Observations for July 17, 2021

Temp ( °F °C ) Dew Point ( °F °C ) Humidity (%) Winds ( mph kmh ) Pressure ( in mb ) Visibility ( mi km ) Precip ( " mm )
12:18 am 00:18 Cloudy with Heavy Rain 69 20.6 67 19.4 93 93 S 7 11 30.01 1016 6 10 0.05 1.27
12:40 am 00:40 Cloudy with Thunderstorms 70 21.1 67 19.4 90 90 SE 6 9 29.97 1015 5 8 0.13 3.30
12:52 am 00:52 Cloudy with Thunderstorms 70 21.1 67 19.4 90 90 S 8 13 29.97 1015 6 10 0.17 4.32
1:07 am 01:07 Cloudy with Strong Thunderstorms 69 20.6 67 19.4 93 93 S 9 15 29.99 1015 2 3 0.14 3.56
1:23 am 01:23 Cloudy with Strong Thunderstorms 70 21.1 67 19.4 90 90 SSW 8 13 29.98 1015 3 5 0.36 9.14
1:34 am 01:34 Cloudy with Thunderstorms 70 21.1 67 19.4 90 90 SSW 9 15 29.97 1015 3 5 0.40 10.16
1:52 am 01:52 Mostly Cloudy with Light Rain 70 21.1 67 19.4 90 90 SSW 8 13 29.95 1014 3 5 0.45 11.43
2:52 am 02:52 Cloudy 70 21.1 68 20 93 93 S 8 13 29.95 1014 10 16 0.00 0.00
3:14 am 03:14 Cloudy 70 21.1 68 20 93 93 S 12 19 29.95 1014 10 16 0.00 0.00
3:52 am 03:52 Cloudy with Light Rain 71 21.7 68 20 90 90 S 10 17 29.96 1014 8 13 0.03 0.76
4:52 am 04:52 Cloudy with Rain 71 21.7 68 20 90 90 S 10 17 29.96 1015 7 11 0.02 0.51
5:01 am 05:01 Cloudy with Light Rain 71 21.7 68 20 90 90 S 8 13 29.96 1015 7 11 0.01 0.25
5:28 am 05:28 Cloudy with Light Rain 71 21.7 68 20 90 90 SSW 9 15 29.95 1014 8 13 0.03 0.76
5:40 am 05:40 Cloudy with Light Rain 71 21.7 68 20 90 90 SSW 7 11 29.96 1015 10 16 0.04 1.02
5:52 am 05:52 Cloudy 71 21.7 68 20 90 90 S 9 15 29.96 1015 10 16 0.04 1.02
6:52 am 06:52 Cloudy 71 21.7 68 20 90 90 SW 7 11 29.97 1015 10 16 0.00 0.00
7:52 am 07:52 Cloudy 72 22.2 69 20.6 91 91 WSW 7 11 30.00 1016 10 16 0.00 0.00
8:52 am 08:52 Cloudy 72 22.2 69 20.6 91 91 SW 6 9 30.01 1016 10 16 0.00 0.00
9:52 am 09:52 Cloudy 73 22.8 69 20.6 87 87 W 7 11 30.02 1017 10 16 0.00 0.00
10:52 am 10:52 Cloudy 75 23.9 69 20.6 82 82 W 10 17 30.04 1017 10 16 0.00 0.00
11:52 am 11:52 Mostly Cloudy 78 25.6 68 20 71 71 WNW 13 20 30.04 1017 10 16 0.00 0.00
12:52 pm 12:52 Mostly Cloudy 77 25 68 20 74 74 NW 13 20 30.05 1018 10 16 0.00 0.00
1:52 pm 13:52 Partly Cloudy 80 26.7 67 19.4 64 64 WNW 12 19 30.05 1018 10 16 0.00 0.00
2:52 pm 14:52 Mostly Cloudy 80 26.7 67 19.4 64 64 WNW 10 17 30.05 1018 10 16 0.00 0.00
3:52 pm 15:52 Mostly Cloudy 82 27.8 68 20 63 63 W 14 22 30.05 1018 10 16 0.00 0.00
4:52 pm 16:52 Partly Cloudy 81 27.2 67 19.4 62 62 NW 6 9 30.05 1018 10 16 0.00 0.00
5:52 pm 17:52 Mostly Sunny 82 27.8 66 18.9 58 58 NNW 8 13 30.06 1018 10 16 0.00 0.00
6:52 pm 18:52 Mostly Cloudy 82 27.8 67 19.4 60 60 WNW 8 13 30.05 1018 10 16 0.00 0.00
7:52 pm 19:52 Partly Cloudy 80 26.7 66 18.9 62 62 WNW 8 13 30.05 1018 10 16 0.00 0.00
8:52 pm 20:52 Partly Cloudy 75 23.9 67 19.4 76 76 W 5 7 30.06 1018 10 16 0.00 0.00
9:52 pm 21:52 Partly Cloudy 74 23.3 67 19.4 79 79 NW 5 7 30.08 1019 10 16 0.00 0.00
10:52 pm 22:52 Partly Cloudy 74 23.3 67 19.4 79 79 NNW 5 7 30.09 1019 10 16 0.00 0.00
11:52 pm 23:52 Cloudy 75 23.9 66 18.9 74 74 E 8 13 30.11 1020 10 16 0.00 0.00

Powered by AerisWeather